Content
SEND FEEDBACK

Daily
Averages
Monthly
Summary
United States of America

GREENFIELD, MASSACHUSETTS


Home > North America > United States > Massachusetts
Elevation: 58 meters     Latitude: 42 37N     Longitude: 072 33W

WEATHER
 
SELECT A DAY
Number of Records: 215,820;   Date Range: 7/1/96 - 10/23/14
 
SHARE

PRINT THIS DATA

[ ← Previous Day ]
WEATHER ALMANAC - 27 FEBRUARY, 2014
[ Next Day → ]
[ °F ]   °C
Weather ElementAverageHighLow
Temperature-9.7 °C-4.4 °C (3:52 pm) (6:52 am)
Dewpoint-16.4 °C-10 °C (7:10 pm)-22.8 °C (11:52 pm)
Humidity60.6 %88 % (7:10 pm)32 % (3:52 pm)
Barometer1006.8 hPa1014.6 hPa (11:52 pm)1001.4 hPa (1:15 pm)
Wind Speed19 km/h38.9 km/h (8:33 pm)
Wind Gust57.5 km/h (8:33 pm)
Weather ElementAverage
Visibility11.6 km
Wind DirectionSSW (207.4 °)

Weather ElementTotal
Precipitation---
Heating Degree Days29.4 (Base 18.3)
Averaged from 34 records on 27 February, 2014
WEATHER CONDITIONS BREAKOUT
WIND DIRECTION BREAKOUT
WEATHER BY HOUR - 27 FEBRUARY, 2014
[ °F ]   °C
Local TimeTemperatureDewpointHumidityBarometerVisibilityWind DirectionWind SpeedGust SpeedPrecipitationEventsConditions
1:52 AM-16.7 °C-21.1 °C69 %1011.9 hPa16.1 kmCalmOvercast
2:52 AM-16.7 °C-21.1 °C69 %1010.8 hPa16.1 kmCalmOvercast
3:52 AM-16.1 °C-20.6 °C69 %1009.5 hPa16.1 kmCalmOvercast
4:52 AM-17.2 °C-20.6 °C75 %1009.1 hPa16.1 kmCalmClear
5:52 AM-16.7 °C-20 °C76 %1007.8 hPa16.1 kmCalmPartly Cloudy
6:52 AM-17.8 °C-20.6 °C79 %1007.8 hPa12.9 kmCalmScattered Clouds
7:52 AM-15 °C-19.4 °C70 %1007.5 hPa14.5 kmCalmOvercast
8:52 AM-12.2 °C-20.6 °C51 %1007.1 hPa16.1 kmSouth (180°)9.3 km/hOvercast
9:52 AM-10.6 °C-22.2 °C39 %1006.4 hPa16.1 kmSouth (180°)16.7 km/hOvercast
10:52 AM-7.8 °C-20.6 °C36 %1005.1 hPa16.1 kmSouth (180°)22.2 km/h31.5 km/hOvercast
11:52 AM-5.6 °C-16.7 °C42 %1003.4 hPa16.1 kmSouth (180°)20.4 km/hScattered Clouds
12:52 PM-5 °C-14.4 °C48 %1002.7 hPa14.5 kmSW (220°)29.6 km/h40.7 km/hOvercast
1:15 PM-6.1 °C-10.6 °C71 %1001.4 hPa2.9 kmSSW (200°)31.5 km/h44.4 km/h0 mmSnowLight Snow
1:26 PM-6.1 °C-10.6 °C71 %1001.4 hPa4.8 kmSW (220°)22.2 km/h40.7 km/h0 mmSnowLight Snow
1:52 PM-5 °C-11.7 °C60 %1002.4 hPa16.1 kmSSW (210°)27.8 km/h37 km/h0 mmMostly Cloudy
2:52 PM-5 °C-16.1 °C42 %1002.7 hPa16.1 kmWest (260°)29.6 km/h38.9 km/hMostly Cloudy
3:52 PM-4.4 °C-18.9 °C32 %1003.4 hPa16.1 kmWest (270°)25.9 km/h37 km/hOvercast
4:52 PM-5 °C-18.9 °C34 %1003.7 hPa16.1 kmWSW (240°)20.4 km/h31.5 km/hMostly Cloudy
5:52 PM-6.7 °C-16.1 °C48 %1004.7 hPa16.1 kmSW (220°)11.1 km/hScattered Clouds
6:52 PM-6.1 °C-14.4 °C53 %1006.4 hPa8 kmWNW (300°)27.8 km/h38.9 km/hHaze
6:55 PM-7.2 °C-12.8 °C65 %1005.4 hPa2.4 kmNW (310°)29.6 km/h38.9 km/h0 mmSnowLight Snow
6:57 PM-7.8 °C-11.7 °C74 %1005.4 hPa1.6 kmNW (320°)29.6 km/h42.6 km/h0 mmSnowLight Snow
7:00 PM-8.3 °C-11.1 °C81 %1005.8 hPa0.8 kmNW (310°)27.8 km/h42.6 km/h0 mmSnowSnow
7:10 PM-8.3 °C-10 °C88 %1005.8 hPa0.3 kmWNW (300°)20.4 km/h0 mmFog-SnowSnow
7:18 PM-7.8 °C-10.6 °C81 %1006.1 hPa2.4 kmWNW (300°)13 km/h0 mmSnowLight Snow
7:22 PM-7.8 °C-11.1 °C78 %1006.1 hPa4.8 kmWNW (300°)29.6 km/h44.4 km/h0 mmSnowLight Snow
7:35 PM-7.8 °C-12.2 °C71 %1006.1 hPa14.5 kmWest (280°)14.8 km/h0 mmOvercast
7:52 PM-7.8 °C-12.8 °C68 %1007.8 hPa16.1 kmWNW (290°)20.4 km/h0 mmOvercast
8:33 PM-8.9 °C-15 °C62 %1008.1 hPa2.9 kmWNW (290°)38.9 km/h57.5 km/h0 mmOvercast
8:42 PM-9.4 °C-16.1 °C59 %1008.5 hPa4.8 kmWNW (300°)31.5 km/h51.8 km/h0 mmOvercast
8:52 PM-9.4 °C-16.1 °C59 %1010.2 hPa12.9 kmWNW (300°)22.2 km/h40.7 km/h0 mmOvercast
9:52 PM-11.1 °C-19.4 °C51 %1011.9 hPa14.5 kmWNW (290°)24.1 km/h44.4 km/h0 mmPartly Cloudy
10:52 PM-12.2 °C-22.2 °C44 %1013.2 hPa16.1 kmWNW (290°)20.4 km/h35.2 km/hClear
11:52 PM-13.3 °C-22.8 °C46 %1014.6 hPa16.1 kmNW (310°)27.8 km/h50.1 km/hClear
Hourly data recorded from KORE, located 0 kilometers away from Greenfield, Massachusetts







STORIES FROM OUR PARTNERS